Tracking 28794 objects as of 19-Apr-2024
HD Live streaming from Space Station
objects crossing your sky now

STARLINK-3869

Track STARLINK-3869 now!
10-day predictions
STARLINK-3869 is classified as:


NORAD ID: 52547
Int'l Code: 2022-051Q
Perigee: 545.7 km
Apogee: 548.0 km
Inclination: 53.2 °
Period: 95.4 minutes
Semi major axis: 6917 km
RCS: Unknown
Launch date: May 13, 2022
Source: United States (US)
Launch site: AIR FORCE WESTERN TEST RANGE (AFWTR)
Your satellite tracking list
Your tracking list is empty




NASA's NSSDC Master Catalog

Two Line Element Set (TLE):
1 52547U 22051Q   24109.95728516  .00017869  00000-0  11378-2 0  9995
2 52547  53.2190 350.4497 0001620  90.5493 269.5684 15.08845169107247
Source of the keplerian elements: AFSPC